Year,Month,Day,Hour,Minute,Value (Times are PST for windgust in km/hr)
2010,04,25,00,00,19.30
2010,04,25,00,01,16.10
2010,04,25,00,02,17.70
2010,04,25,00,03,11.30
2010,04,25,00,04,19.30
2010,04,25,00,05,11.30
2010,04,25,00,06,9.60
2010,04,25,00,07,16.10
2010,04,25,00,08,14.50
2010,04,25,00,09,9.60
2010,04,25,00,10,16.10
2010,04,25,00,11,8.10
2010,04,25,00,12,12.90
2010,04,25,00,13,11.30
2010,04,25,00,14,20.90
2010,04,25,00,15,8.10
2010,04,25,00,16,17.70
2010,04,25,00,17,16.10
2010,04,25,00,18,17.70
2010,04,25,00,19,16.10
2010,04,25,00,20,14.50
2010,04,25,00,21,14.50
2010,04,25,00,22,11.30
2010,04,25,00,23,14.50
2010,04,25,00,24,16.10
2010,04,25,00,25,12.90
2010,04,25,00,26,20.90
2010,04,25,00,27,19.30
2010,04,25,00,28,20.90
2010,04,25,00,29,19.30
2010,04,25,00,30,20.90
2010,04,25,00,31,14.50
2010,04,25,00,32,9.60
2010,04,25,00,33,11.30
2010,04,25,00,34,6.40
2010,04,25,00,35,8.10
2010,04,25,00,36,16.10
2010,04,25,00,37,16.10
2010,04,25,00,38,16.10
2010,04,25,00,39,16.10
2010,04,25,00,40,16.10
2010,04,25,00,41,12.90
2010,04,25,00,42,9.60
2010,04,25,00,43,16.10
2010,04,25,00,44,11.30
2010,04,25,00,45,14.50
2010,04,25,00,46,11.30
2010,04,25,00,47,12.90
2010,04,25,00,48,9.60
2010,04,25,00,49,8.10
2010,04,25,00,50,11.30
2010,04,25,00,51,11.30
2010,04,25,00,52,14.50
2010,04,25,00,53,17.70
2010,04,25,00,54,14.50
2010,04,25,00,55,9.60
2010,04,25,00,56,11.30
2010,04,25,00,57,19.30
2010,04,25,00,58,16.10
2010,04,25,00,59,17.70
2010,04,25,01,00,19.30
2010,04,25,01,01,16.10
2010,04,25,01,02,16.10
2010,04,25,01,03,9.60
2010,04,25,01,04,22.50
2010,04,25,01,05,16.10
2010,04,25,01,06,16.10
2010,04,25,01,07,19.30
2010,04,25,01,08,20.90
2010,04,25,01,09,14.50
2010,04,25,01,10,11.30
2010,04,25,01,11,16.10
2010,04,25,01,12,11.30
2010,04,25,01,13,8.10
2010,04,25,01,14,20.90
2010,04,25,01,15,14.50
2010,04,25,01,16,11.30
2010,04,25,01,17,17.70
2010,04,25,01,18,14.50
2010,04,25,01,19,17.70
2010,04,25,01,20,17.70
2010,04,25,01,21,14.50
2010,04,25,01,22,11.30
2010,04,25,01,23,16.10
2010,04,25,01,24,19.30
2010,04,25,01,25,11.30
2010,04,25,01,26,6.40
2010,04,25,01,27,8.10
2010,04,25,01,28,11.30
2010,04,25,01,29,16.10
2010,04,25,01,30,12.90
2010,04,25,01,31,16.10
2010,04,25,01,32,3.20
2010,04,25,01,33,8.10
2010,04,25,01,34,4.80
2010,04,25,01,35,9.60
2010,04,25,01,36,6.40
2010,04,25,01,37,6.40
2010,04,25,01,38,6.40
2010,04,25,01,39,3.20
2010,04,25,01,40,3.20
2010,04,25,01,41,3.20
2010,04,25,01,42,6.40
2010,04,25,01,43,1.60
2010,04,25,01,44,4.80
2010,04,25,01,45,4.80
2010,04,25,01,46,8.10
2010,04,25,01,47,8.10
2010,04,25,01,48,4.80
2010,04,25,01,49,4.80
2010,04,25,01,50,4.80
2010,04,25,01,51,9.60
2010,04,25,01,52,11.30
2010,04,25,01,53,16.10
2010,04,25,01,54,11.30
2010,04,25,01,55,17.70
2010,04,25,01,56,20.90
2010,04,25,01,57,16.10
2010,04,25,01,58,19.30
2010,04,25,01,59,20.90
2010,04,25,02,00,11.30
2010,04,25,02,01,9.60
2010,04,25,02,02,20.90
2010,04,25,02,03,17.70
2010,04,25,02,04,24.20
2010,04,25,02,05,16.10
2010,04,25,02,06,19.30
2010,04,25,02,07,20.90
2010,04,25,02,08,11.30
2010,04,25,02,09,16.10
2010,04,25,02,10,9.60
2010,04,25,02,11,16.10
2010,04,25,02,12,14.50
2010,04,25,02,13,17.70
2010,04,25,02,14,6.40
2010,04,25,02,15,11.30
2010,04,25,02,16,16.10
2010,04,25,02,17,22.50
2010,04,25,02,18,19.30
2010,04,25,02,19,11.30
2010,04,25,02,20,9.60
2010,04,25,02,21,9.60
2010,04,25,02,22,9.60
2010,04,25,02,23,8.10
2010,04,25,02,24,14.50
2010,04,25,02,25,9.60
2010,04,25,02,26,14.50
2010,04,25,02,27,8.10
2010,04,25,02,28,9.60
2010,04,25,02,29,8.10
2010,04,25,02,30,4.80
2010,04,25,02,31,6.40
2010,04,25,02,32,14.50
2010,04,25,02,33,8.10
2010,04,25,02,34,8.10
2010,04,25,02,35,4.80
2010,04,25,02,36,6.40
2010,04,25,02,37,4.80
2010,04,25,02,39,9.60
2010,04,25,02,40,8.10
2010,04,25,02,41,4.80
2010,04,25,02,43,8.10
2010,04,25,02,44,6.40
2010,04,25,02,45,4.80
2010,04,25,02,46,4.80
2010,04,25,02,48,4.80
2010,04,25,02,49,4.80
2010,04,25,02,51,4.80
2010,04,25,02,52,4.80
2010,04,25,02,53,1.60
2010,04,25,02,54,8.10
2010,04,25,02,55,8.10
2010,04,25,02,56,4.80
2010,04,25,02,57,6.40
2010,04,25,02,58,3.20
2010,04,25,02,59,4.80
2010,04,25,03,00,8.10
2010,04,25,03,01,6.40
2010,04,25,03,02,4.80
2010,04,25,03,06,4.80
2010,04,25,03,07,6.40
2010,04,25,03,08,3.20
2010,04,25,03,09,3.20
2010,04,25,03,10,4.80
2010,04,25,03,11,4.80
2010,04,25,03,12,6.40
2010,04,25,03,13,6.40
2010,04,25,03,14,6.40
2010,04,25,03,15,3.20
2010,04,25,03,16,4.80
2010,04,25,03,18,3.20
2010,04,25,03,19,4.80
2010,04,25,03,20,6.40
2010,04,25,03,21,6.40
2010,04,25,03,22,6.40
2010,04,25,03,23,6.40
2010,04,25,03,24,3.20
2010,04,25,03,25,4.80
2010,04,25,03,26,1.60
2010,04,25,03,27,4.80
2010,04,25,03,28,4.80
2010,04,25,03,29,3.20
2010,04,25,03,30,4.80
2010,04,25,03,31,4.80
2010,04,25,03,32,1.60
2010,04,25,03,33,1.60
2010,04,25,03,35,3.20
2010,04,25,03,36,6.40
2010,04,25,03,37,6.40
2010,04,25,03,38,3.20
2010,04,25,03,39,6.40
2010,04,25,03,40,6.40
2010,04,25,03,41,4.80
2010,04,25,03,42,1.60
2010,04,25,03,43,4.80
2010,04,25,03,44,3.20
2010,04,25,03,45,3.20
2010,04,25,03,46,3.20
2010,04,25,03,47,3.20
2010,04,25,03,48,1.60
2010,04,25,03,49,3.20
2010,04,25,03,50,1.60
2010,04,25,03,51,3.20
2010,04,25,03,52,1.60
2010,04,25,03,53,1.60
2010,04,25,03,54,3.20
2010,04,25,03,55,1.60
2010,04,25,03,56,6.40
2010,04,25,03,57,3.20
2010,04,25,03,58,4.80
2010,04,25,03,59,4.80
2010,04,25,04,00,3.20
2010,04,25,04,01,1.60
2010,04,25,04,02,3.20
2010,04,25,04,04,1.60
2010,04,25,04,05,3.20
2010,04,25,04,06,3.20
2010,04,25,04,08,1.60
2010,04,25,04,09,3.20
2010,04,25,04,10,1.60
2010,04,25,04,11,1.60
2010,04,25,04,17,1.60
2010,04,25,04,18,1.60
2010,04,25,04,25,1.60
2010,04,25,04,28,1.60
2010,04,25,04,29,3.20
2010,04,25,04,30,1.60
2010,04,25,04,31,3.20
2010,04,25,04,32,1.60
2010,04,25,04,33,4.80
2010,04,25,04,34,1.60
2010,04,25,04,35,3.20
2010,04,25,04,36,3.20
2010,04,25,04,37,3.20
2010,04,25,04,38,3.20
2010,04,25,04,39,3.20
2010,04,25,04,40,3.20
2010,04,25,04,42,3.20
2010,04,25,04,44,3.20
2010,04,25,04,45,3.20
2010,04,25,04,46,3.20
2010,04,25,04,47,4.80
2010,04,25,04,48,3.20
2010,04,25,04,49,3.20
2010,04,25,04,50,3.20
2010,04,25,04,51,3.20
2010,04,25,04,52,6.40
2010,04,25,04,53,9.60
2010,04,25,04,54,8.10
2010,04,25,04,55,6.40
2010,04,25,04,56,6.40
2010,04,25,04,57,8.10
2010,04,25,04,58,6.40
2010,04,25,04,59,6.40
2010,04,25,05,00,4.80
2010,04,25,05,01,4.80
2010,04,25,05,02,4.80
2010,04,25,05,03,4.80
2010,04,25,05,04,8.10
2010,04,25,05,05,6.40
2010,04,25,05,06,3.20
2010,04,25,05,07,8.10
2010,04,25,05,08,8.10
2010,04,25,05,09,8.10
2010,04,25,05,10,8.10
2010,04,25,05,11,4.80
2010,04,25,05,12,3.20
2010,04,25,05,14,6.40
2010,04,25,05,15,6.40
2010,04,25,05,16,9.60
2010,04,25,05,17,6.40
2010,04,25,05,18,6.40
2010,04,25,05,19,6.40
2010,04,25,05,20,4.80
2010,04,25,05,21,4.80
2010,04,25,05,22,4.80
2010,04,25,05,23,4.80
2010,04,25,05,24,6.40
2010,04,25,05,25,3.20
2010,04,25,05,26,3.20
2010,04,25,05,28,1.60
2010,04,25,05,32,4.80
2010,04,25,05,33,4.80
2010,04,25,05,34,3.20
2010,04,25,05,35,4.80
2010,04,25,05,36,4.80
2010,04,25,05,37,6.40
2010,04,25,05,38,4.80
2010,04,25,05,39,4.80
2010,04,25,05,40,6.40
2010,04,25,05,41,4.80
2010,04,25,05,42,6.40
2010,04,25,05,43,6.40
2010,04,25,05,44,6.40
2010,04,25,05,45,3.20
2010,04,25,05,46,1.60
2010,04,25,05,47,3.20
2010,04,25,05,48,6.40
2010,04,25,05,49,4.80
2010,04,25,05,50,3.20
2010,04,25,05,55,1.60
2010,04,25,05,56,4.80
2010,04,25,05,57,4.80
2010,04,25,05,58,1.60
2010,04,25,05,59,6.40
2010,04,25,06,00,3.20
2010,04,25,06,01,4.80
2010,04,25,06,02,3.20
2010,04,25,06,03,1.60
2010,04,25,06,04,4.80
2010,04,25,06,05,4.80
2010,04,25,06,06,3.20
2010,04,25,06,07,3.20
2010,04,25,06,09,3.20
2010,04,25,06,10,4.80
2010,04,25,06,11,3.20
2010,04,25,06,12,3.20
2010,04,25,06,13,3.20
2010,04,25,06,14,1.60
2010,04,25,06,15,4.80
2010,04,25,06,16,4.80
2010,04,25,06,18,1.60
2010,04,25,06,19,1.60
2010,04,25,06,20,3.20
2010,04,25,06,22,3.20
2010,04,25,06,23,4.80
2010,04,25,06,24,4.80
2010,04,25,06,25,6.40
2010,04,25,06,26,6.40
2010,04,25,06,27,8.10
2010,04,25,06,28,6.40
2010,04,25,06,29,6.40
2010,04,25,06,30,4.80
2010,04,25,06,31,6.40
2010,04,25,06,32,4.80
2010,04,25,06,33,6.40
2010,04,25,06,34,8.10
2010,04,25,06,35,6.40
2010,04,25,06,36,8.10
2010,04,25,06,37,4.80
2010,04,25,06,38,6.40
2010,04,25,06,39,8.10
2010,04,25,06,40,6.40
2010,04,25,06,41,6.40
2010,04,25,06,42,6.40
2010,04,25,06,43,8.10
2010,04,25,06,44,9.60
2010,04,25,06,45,14.50
2010,04,25,06,46,6.40
2010,04,25,06,47,6.40
2010,04,25,06,48,6.40
2010,04,25,06,49,4.80
2010,04,25,06,50,4.80
2010,04,25,06,51,6.40
2010,04,25,06,52,4.80
2010,04,25,06,53,4.80
2010,04,25,06,54,4.80
2010,04,25,06,55,6.40
2010,04,25,06,56,6.40
2010,04,25,06,57,8.10
2010,04,25,06,58,6.40
2010,04,25,06,59,6.40
2010,04,25,07,00,8.10
2010,04,25,07,01,6.40
2010,04,25,07,02,4.80
2010,04,25,07,03,8.10
2010,04,25,07,04,4.80
2010,04,25,07,05,6.40
2010,04,25,07,06,8.10
2010,04,25,07,07,6.40
2010,04,25,07,08,6.40
2010,04,25,07,09,4.80
2010,04,25,07,10,1.60
2010,04,25,07,11,1.60
2010,04,25,07,12,4.80
2010,04,25,07,13,4.80
2010,04,25,07,14,4.80
2010,04,25,07,15,4.80
2010,04,25,07,16,3.20
2010,04,25,07,17,1.60
2010,04,25,07,18,6.40
2010,04,25,07,19,4.80
2010,04,25,07,20,4.80
2010,04,25,07,21,3.20
2010,04,25,07,22,3.20
2010,04,25,07,23,8.10
2010,04,25,07,24,4.80
2010,04,25,07,25,3.20
2010,04,25,07,27,1.60
2010,04,25,07,28,1.60
2010,04,25,07,29,3.20
2010,04,25,07,30,3.20
2010,04,25,07,31,4.80
2010,04,25,07,32,1.60
2010,04,25,07,33,3.20
2010,04,25,07,34,8.10
2010,04,25,07,35,4.80
2010,04,25,07,36,1.60
2010,04,25,07,37,6.40
2010,04,25,07,38,3.20
2010,04,25,07,39,3.20
2010,04,25,07,40,1.60
2010,04,25,07,41,1.60
2010,04,25,07,42,1.60
2010,04,25,07,43,6.40
2010,04,25,07,44,6.40
2010,04,25,07,45,6.40
2010,04,25,07,46,6.40
2010,04,25,07,47,6.40
2010,04,25,07,48,1.60
2010,04,25,07,49,3.20
2010,04,25,07,50,4.80
2010,04,25,07,51,3.20
2010,04,25,07,52,8.10
2010,04,25,07,53,3.20
2010,04,25,07,54,8.10
2010,04,25,07,55,6.40
2010,04,25,07,56,4.80
2010,04,25,07,57,6.40
2010,04,25,07,58,9.60
2010,04,25,07,59,9.60
2010,04,25,08,00,6.40
2010,04,25,08,01,6.40
2010,04,25,08,02,4.80
2010,04,25,08,03,8.10
2010,04,25,08,04,3.20
2010,04,25,08,05,3.20
2010,04,25,08,06,4.80
2010,04,25,08,07,8.10
2010,04,25,08,08,8.10
2010,04,25,08,09,12.90
2010,04,25,08,10,9.60
2010,04,25,08,11,8.10
2010,04,25,08,12,4.80
2010,04,25,08,13,1.60
2010,04,25,08,14,4.80
2010,04,25,08,15,1.60
2010,04,25,08,16,8.10
2010,04,25,08,17,9.60
2010,04,25,08,18,17.70
2010,04,25,08,19,11.30
2010,04,25,08,20,11.30
2010,04,25,08,21,3.20
2010,04,25,08,22,8.10
2010,04,25,08,23,6.40
2010,04,25,08,24,6.40
2010,04,25,08,25,6.40
2010,04,25,08,26,9.60
2010,04,25,08,27,3.20
2010,04,25,08,28,6.40
2010,04,25,08,29,6.40
2010,04,25,08,30,4.80
2010,04,25,08,31,6.40
2010,04,25,08,32,8.10
2010,04,25,08,33,4.80
2010,04,25,08,34,6.40
2010,04,25,08,35,8.10
2010,04,25,08,36,8.10
2010,04,25,08,37,11.30
2010,04,25,08,38,11.30
2010,04,25,08,39,11.30
2010,04,25,08,40,9.60
2010,04,25,08,41,6.40
2010,04,25,08,42,17.70
2010,04,25,08,43,8.10
2010,04,25,08,44,12.90
2010,04,25,08,45,9.60
2010,04,25,08,46,11.30
2010,04,25,08,47,4.80
2010,04,25,08,48,9.60
2010,04,25,08,49,4.80
2010,04,25,08,50,9.60
2010,04,25,08,51,8.10
2010,04,25,08,52,8.10
2010,04,25,08,53,4.80
2010,04,25,08,54,6.40
2010,04,25,08,55,6.40
2010,04,25,08,56,8.10
2010,04,25,08,57,9.60
2010,04,25,08,58,9.60
2010,04,25,08,59,11.30
2010,04,25,09,00,8.10
2010,04,25,09,01,4.80
2010,04,25,09,02,9.60
2010,04,25,09,03,6.40
2010,04,25,09,04,4.80
2010,04,25,09,05,6.40
2010,04,25,09,06,11.30
2010,04,25,09,07,8.10
2010,04,25,09,08,6.40
2010,04,25,09,09,8.10
2010,04,25,09,10,6.40
2010,04,25,09,11,6.40
2010,04,25,09,12,11.30
2010,04,25,09,13,6.40
2010,04,25,09,14,8.10
2010,04,25,09,15,3.20
2010,04,25,09,16,4.80
2010,04,25,09,17,6.40
2010,04,25,09,18,6.40
2010,04,25,09,19,6.40
2010,04,25,09,20,9.60
2010,04,25,09,21,8.10
2010,04,25,09,22,16.10
2010,04,25,09,23,11.30
2010,04,25,09,24,8.10
2010,04,25,09,25,8.10
2010,04,25,09,26,8.10
2010,04,25,09,27,9.60
2010,04,25,09,28,6.40
2010,04,25,09,29,11.30
2010,04,25,09,30,8.10
2010,04,25,09,31,6.40
2010,04,25,09,32,17.70
2010,04,25,09,33,16.10
2010,04,25,09,34,11.30
2010,04,25,09,35,11.30
2010,04,25,09,36,8.10
2010,04,25,09,37,9.60
2010,04,25,09,38,8.10
2010,04,25,09,39,17.70
2010,04,25,09,40,16.10
2010,04,25,09,41,16.10
2010,04,25,09,42,11.30
2010,04,25,09,43,16.10
2010,04,25,09,44,8.10
2010,04,25,09,45,9.60
2010,04,25,09,46,14.50
2010,04,25,09,47,8.10
2010,04,25,09,48,11.30
2010,04,25,09,49,17.70
2010,04,25,09,50,6.40
2010,04,25,09,51,6.40
2010,04,25,09,52,11.30
2010,04,25,09,53,16.10
2010,04,25,09,54,8.10
2010,04,25,09,55,11.30
2010,04,25,09,56,6.40
2010,04,25,09,57,17.70
2010,04,25,09,58,11.30
2010,04,25,09,59,11.30
2010,04,25,10,00,14.50
2010,04,25,10,01,17.70
2010,04,25,10,02,9.60
2010,04,25,10,03,11.30
2010,04,25,10,04,11.30
2010,04,25,10,05,9.60
2010,04,25,10,06,9.60
2010,04,25,10,07,9.60
2010,04,25,10,08,4.80
2010,04,25,10,09,6.40
2010,04,25,10,10,9.60
2010,04,25,10,11,11.30
2010,04,25,10,12,8.10
2010,04,25,10,13,9.60
2010,04,25,10,14,8.10
2010,04,25,10,15,9.60
2010,04,25,10,16,19.30
2010,04,25,10,17,11.30
2010,04,25,10,18,4.80
2010,04,25,10,19,6.40
2010,04,25,10,20,8.10
2010,04,25,10,21,8.10
2010,04,25,10,22,8.10
2010,04,25,10,23,6.40
2010,04,25,10,24,4.80
2010,04,25,10,25,9.60
2010,04,25,10,26,6.40
2010,04,25,10,27,3.20
2010,04,25,10,28,4.80
2010,04,25,10,29,6.40
2010,04,25,10,30,9.60
2010,04,25,10,31,8.10
2010,04,25,10,32,6.40
2010,04,25,10,33,11.30
2010,04,25,10,34,11.30
2010,04,25,10,35,11.30
2010,04,25,10,36,14.50
2010,04,25,10,37,8.10
2010,04,25,10,38,6.40
2010,04,25,10,39,8.10
2010,04,25,10,40,8.10
2010,04,25,10,41,4.80
2010,04,25,10,42,11.30
2010,04,25,10,43,9.60
2010,04,25,10,44,6.40
2010,04,25,10,45,6.40
2010,04,25,10,46,8.10
2010,04,25,10,47,9.60
2010,04,25,10,48,11.30
2010,04,25,10,49,6.40
2010,04,25,10,50,8.10
2010,04,25,10,51,8.10
2010,04,25,10,52,8.10
2010,04,25,10,53,8.10
2010,04,25,10,54,11.30
2010,04,25,10,55,6.40
2010,04,25,10,56,11.30
2010,04,25,10,57,1.60
2010,04,25,10,58,6.40
2010,04,25,10,59,4.80
2010,04,25,11,00,9.60
2010,04,25,11,01,9.60
2010,04,25,11,02,11.30
2010,04,25,11,03,11.30
2010,04,25,11,04,8.10
2010,04,25,11,05,14.50
2010,04,25,11,06,14.50
2010,04,25,11,07,14.50
2010,04,25,11,08,4.80
2010,04,25,11,09,4.80
2010,04,25,11,10,4.80
2010,04,25,11,11,6.40
2010,04,25,11,12,9.60
2010,04,25,11,13,9.60
2010,04,25,11,14,9.60
2010,04,25,11,15,8.10
2010,04,25,11,16,8.10
2010,04,25,11,17,9.60
2010,04,25,11,18,11.30
2010,04,25,11,19,14.50
2010,04,25,11,20,8.10
2010,04,25,11,21,17.70
2010,04,25,11,22,9.60
2010,04,25,11,23,11.30
2010,04,25,11,24,9.60
2010,04,25,11,25,17.70
2010,04,25,11,26,11.30
2010,04,25,11,27,12.90
2010,04,25,11,28,8.10
2010,04,25,11,29,9.60
2010,04,25,11,30,8.10
2010,04,25,11,31,9.60
2010,04,25,11,32,9.60
2010,04,25,11,33,9.60
2010,04,25,11,34,4.80
2010,04,25,11,35,8.10
2010,04,25,11,36,8.10
2010,04,25,11,37,3.20
2010,04,25,11,38,3.20
2010,04,25,11,39,8.10
2010,04,25,11,40,9.60
2010,04,25,11,41,9.60
2010,04,25,11,42,12.90
2010,04,25,11,43,8.10
2010,04,25,11,44,11.30
2010,04,25,11,45,9.60
2010,04,25,11,46,11.30
2010,04,25,11,47,9.60
2010,04,25,11,48,8.10
2010,04,25,11,49,19.30
2010,04,25,11,50,6.40
2010,04,25,11,51,9.60
2010,04,25,11,52,11.30
2010,04,25,11,53,22.50
2010,04,25,11,54,14.50
2010,04,25,11,55,8.10
2010,04,25,11,56,19.30
2010,04,25,11,57,16.10
2010,04,25,11,58,14.50
2010,04,25,11,59,9.60
2010,04,25,12,00,8.10
2010,04,25,12,01,6.40
2010,04,25,12,02,16.10
2010,04,25,12,03,16.10
2010,04,25,12,04,16.10
2010,04,25,12,05,16.10
2010,04,25,12,06,9.60
2010,04,25,12,07,19.30
2010,04,25,12,08,11.30
2010,04,25,12,09,14.50
2010,04,25,12,10,9.60
2010,04,25,12,11,14.50
2010,04,25,12,12,16.10
2010,04,25,12,13,11.30
2010,04,25,12,14,16.10
2010,04,25,12,15,12.90
2010,04,25,12,16,11.30
2010,04,25,12,17,14.50
2010,04,25,12,18,11.30
2010,04,25,12,19,14.50
2010,04,25,12,20,14.50
2010,04,25,12,21,16.10
2010,04,25,12,22,17.70
2010,04,25,12,23,14.50
2010,04,25,12,24,14.50
2010,04,25,12,25,11.30
2010,04,25,12,26,8.10
2010,04,25,12,27,11.30
2010,04,25,12,28,17.70
2010,04,25,12,29,9.60
2010,04,25,12,30,9.60
2010,04,25,12,31,17.70
2010,04,25,12,32,9.60
2010,04,25,12,33,9.60
2010,04,25,12,34,14.50
2010,04,25,12,35,11.30
2010,04,25,12,36,19.30
2010,04,25,12,37,9.60
2010,04,25,12,38,14.50
2010,04,25,12,39,11.30
2010,04,25,12,40,14.50
2010,04,25,12,41,11.30
2010,04,25,12,42,12.90
2010,04,25,12,43,14.50
2010,04,25,12,44,6.40
2010,04,25,12,45,14.50
2010,04,25,12,46,8.10
2010,04,25,12,47,25.70
2010,04,25,12,48,11.30
2010,04,25,12,49,11.30
2010,04,25,12,50,16.10
2010,04,25,12,51,8.10
2010,04,25,12,52,4.80
2010,04,25,12,53,6.40
2010,04,25,12,54,9.60
2010,04,25,12,55,8.10
2010,04,25,12,56,8.10
2010,04,25,12,57,6.40
2010,04,25,12,58,19.30
2010,04,25,12,59,14.50
2010,04,25,13,00,9.60
2010,04,25,13,01,14.50
2010,04,25,13,02,8.10
2010,04,25,13,03,9.60
2010,04,25,13,04,8.10
2010,04,25,13,05,14.50
2010,04,25,13,06,9.60
2010,04,25,13,07,12.90
2010,04,25,13,08,6.40
2010,04,25,13,09,14.50
2010,04,25,13,10,11.30
2010,04,25,13,11,4.80
2010,04,25,13,12,19.30
2010,04,25,13,13,11.30
2010,04,25,13,14,9.60
2010,04,25,13,15,17.70
2010,04,25,13,16,19.30
2010,04,25,13,17,17.70
2010,04,25,13,18,19.30
2010,04,25,13,19,11.30
2010,04,25,13,20,11.30
2010,04,25,13,21,8.10
2010,04,25,13,22,11.30
2010,04,25,13,23,8.10
2010,04,25,13,24,11.30
2010,04,25,13,25,16.10
2010,04,25,13,26,14.50
2010,04,25,13,27,16.10
2010,04,25,13,28,8.10
2010,04,25,13,29,11.30
2010,04,25,13,30,14.50
2010,04,25,13,31,6.40
2010,04,25,13,32,14.50
2010,04,25,13,33,11.30
2010,04,25,13,34,17.70
2010,04,25,13,35,16.10
2010,04,25,13,36,9.60
2010,04,25,13,37,17.70
2010,04,25,13,38,11.30
2010,04,25,13,39,11.30
2010,04,25,13,40,9.60
2010,04,25,13,41,8.10
2010,04,25,13,42,4.80
2010,04,25,13,43,11.30
2010,04,25,13,44,16.10
2010,04,25,13,45,11.30
2010,04,25,13,46,9.60
2010,04,25,13,47,17.70
2010,04,25,13,48,20.90
2010,04,25,13,49,6.40
2010,04,25,13,50,6.40
2010,04,25,13,51,12.90
2010,04,25,13,52,17.70
2010,04,25,13,53,19.30
2010,04,25,13,54,17.70
2010,04,25,13,55,11.30
2010,04,25,13,56,16.10
2010,04,25,13,57,8.10
2010,04,25,13,58,9.60
2010,04,25,13,59,6.40
2010,04,25,14,00,9.60
2010,04,25,14,01,8.10
2010,04,25,14,02,8.10
2010,04,25,14,03,3.20
2010,04,25,14,04,9.60
2010,04,25,14,05,11.30
2010,04,25,14,06,6.40
2010,04,25,14,07,8.10
2010,04,25,14,08,8.10
2010,04,25,14,09,6.40
2010,04,25,14,10,9.60
2010,04,25,14,11,9.60
2010,04,25,14,12,9.60
2010,04,25,14,13,9.60
2010,04,25,14,14,11.30
2010,04,25,14,15,8.10
2010,04,25,14,16,6.40
2010,04,25,14,17,4.80
2010,04,25,14,18,11.30
2010,04,25,14,19,20.90
2010,04,25,14,20,11.30
2010,04,25,14,21,11.30
2010,04,25,14,22,12.90
2010,04,25,14,23,14.50
2010,04,25,14,24,14.50
2010,04,25,14,25,11.30
2010,04,25,14,26,9.60
2010,04,25,14,27,9.60
2010,04,25,14,28,6.40
2010,04,25,14,29,14.50
2010,04,25,14,30,11.30
2010,04,25,14,31,6.40
2010,04,25,14,32,9.60
2010,04,25,14,33,11.30
2010,04,25,14,34,14.50
2010,04,25,14,35,9.60
2010,04,25,14,36,8.10
2010,04,25,14,37,6.40
2010,04,25,14,38,8.10
2010,04,25,14,39,6.40
2010,04,25,14,40,16.10
2010,04,25,14,41,9.60
2010,04,25,14,42,9.60
2010,04,25,14,43,9.60
2010,04,25,14,44,6.40
2010,04,25,14,45,8.10
2010,04,25,14,46,6.40
2010,04,25,14,47,16.10
2010,04,25,14,48,9.60
2010,04,25,14,49,6.40
2010,04,25,14,50,9.60
2010,04,25,14,51,9.60
2010,04,25,14,52,9.60
2010,04,25,14,53,11.30
2010,04,25,14,54,6.40
2010,04,25,14,55,11.30
2010,04,25,14,56,9.60
2010,04,25,14,57,9.60
2010,04,25,14,58,6.40
2010,04,25,14,59,9.60
2010,04,25,15,00,9.60
2010,04,25,15,01,11.30
2010,04,25,15,02,3.20
2010,04,25,15,03,4.80
2010,04,25,15,04,14.50
2010,04,25,15,05,9.60
2010,04,25,15,06,16.10
2010,04,25,15,07,8.10
2010,04,25,15,08,9.60
2010,04,25,15,09,6.40
2010,04,25,15,10,8.10
2010,04,25,15,11,6.40
2010,04,25,15,12,9.60
2010,04,25,15,13,4.80
2010,04,25,15,14,4.80
2010,04,25,15,15,14.50
2010,04,25,15,16,6.40
2010,04,25,15,17,6.40
2010,04,25,15,18,9.60
2010,04,25,15,19,14.50
2010,04,25,15,20,8.10
2010,04,25,15,21,8.10
2010,04,25,15,22,8.10
2010,04,25,15,23,8.10
2010,04,25,15,24,6.40
2010,04,25,15,25,16.10
2010,04,25,15,26,16.10
2010,04,25,15,27,16.10
2010,04,25,15,28,8.10
2010,04,25,15,29,6.40
2010,04,25,15,30,3.20
2010,04,25,15,31,3.20
2010,04,25,15,32,8.10
2010,04,25,15,33,4.80
2010,04,25,15,34,6.40
2010,04,25,15,35,4.80
2010,04,25,15,36,6.40
2010,04,25,15,37,6.40
2010,04,25,15,38,3.20
2010,04,25,15,39,3.20
2010,04,25,15,40,3.20
2010,04,25,15,41,4.80
2010,04,25,15,42,6.40
2010,04,25,15,43,8.10
2010,04,25,15,44,9.60
2010,04,25,15,45,6.40
2010,04,25,15,46,6.40
2010,04,25,15,47,6.40
2010,04,25,15,48,9.60
2010,04,25,15,49,14.50
2010,04,25,15,50,17.70
2010,04,25,15,51,9.60
2010,04,25,15,52,8.10
2010,04,25,15,53,9.60
2010,04,25,15,54,8.10
2010,04,25,15,55,8.10
2010,04,25,15,56,17.70
2010,04,25,15,57,11.30
2010,04,25,15,58,8.10
2010,04,25,15,59,9.60
2010,04,25,16,00,8.10
2010,04,25,16,01,8.10
2010,04,25,16,02,11.30
2010,04,25,16,03,9.60
2010,04,25,16,04,6.40
2010,04,25,16,05,14.50
2010,04,25,16,06,12.90
2010,04,25,16,07,8.10
2010,04,25,16,08,6.40
2010,04,25,16,09,6.40
2010,04,25,16,10,14.50
2010,04,25,16,11,14.50
2010,04,25,16,12,8.10
2010,04,25,16,13,8.10
2010,04,25,16,14,3.20
2010,04,25,16,15,6.40
2010,04,25,16,16,3.20
2010,04,25,16,17,6.40
2010,04,25,16,18,8.10
2010,04,25,16,19,9.60
2010,04,25,16,20,16.10
2010,04,25,16,21,11.30
2010,04,25,16,22,14.50
2010,04,25,16,23,9.60
2010,04,25,16,24,6.40
2010,04,25,16,25,6.40
2010,04,25,16,26,4.80
2010,04,25,16,27,4.80
2010,04,25,16,28,11.30
2010,04,25,16,29,9.60
2010,04,25,16,30,4.80
2010,04,25,16,31,6.40
2010,04,25,16,32,9.60
2010,04,25,16,33,11.30
2010,04,25,16,34,6.40
2010,04,25,16,35,6.40
2010,04,25,16,36,8.10
2010,04,25,16,37,9.60
2010,04,25,16,38,8.10
2010,04,25,16,39,9.60
2010,04,25,16,40,9.60
2010,04,25,16,41,4.80
2010,04,25,16,42,11.30
2010,04,25,16,43,8.10
2010,04,25,16,44,6.40
2010,04,25,16,45,9.60
2010,04,25,16,46,8.10
2010,04,25,16,47,3.20
2010,04,25,16,48,4.80
2010,04,25,16,49,11.30
2010,04,25,16,50,9.60
2010,04,25,16,51,9.60
2010,04,25,16,52,9.60
2010,04,25,16,53,9.60
2010,04,25,16,54,8.10
2010,04,25,16,55,8.10
2010,04,25,16,56,11.30
2010,04,25,16,57,9.60
2010,04,25,16,58,17.70
2010,04,25,16,59,17.70
2010,04,25,17,00,8.10
2010,04,25,17,01,14.50
2010,04,25,17,02,11.30
2010,04,25,17,03,11.30
2010,04,25,17,04,6.40
2010,04,25,17,05,6.40
2010,04,25,17,06,8.10
2010,04,25,17,07,11.30
2010,04,25,17,08,6.40
2010,04,25,17,09,6.40
2010,04,25,17,10,11.30
2010,04,25,17,11,9.60
2010,04,25,17,12,3.20
2010,04,25,17,13,4.80
2010,04,25,17,14,4.80
2010,04,25,17,15,6.40
2010,04,25,17,16,11.30
2010,04,25,17,17,6.40
2010,04,25,17,18,4.80
2010,04,25,17,19,16.10
2010,04,25,17,20,6.40
2010,04,25,17,21,6.40
2010,04,25,17,22,4.80
2010,04,25,17,23,8.10
2010,04,25,17,24,6.40
2010,04,25,17,25,11.30
2010,04,25,17,26,9.60
2010,04,25,17,27,16.10
2010,04,25,17,28,17.70
2010,04,25,17,29,12.90
2010,04,25,17,30,16.10
2010,04,25,17,31,14.50
2010,04,25,17,32,8.10
2010,04,25,17,33,6.40
2010,04,25,17,34,8.10
2010,04,25,17,35,8.10
2010,04,25,17,36,8.10
2010,04,25,17,37,8.10
2010,04,25,17,38,9.60
2010,04,25,17,39,6.40
2010,04,25,17,40,3.20
2010,04,25,17,41,6.40
2010,04,25,17,42,4.80
2010,04,25,17,43,11.30
2010,04,25,17,44,9.60
2010,04,25,17,45,6.40
2010,04,25,17,46,6.40
2010,04,25,17,47,8.10
2010,04,25,17,48,9.60
2010,04,25,17,49,9.60
2010,04,25,17,50,12.90
2010,04,25,17,51,8.10
2010,04,25,17,52,8.10
2010,04,25,17,53,6.40
2010,04,25,17,54,4.80
2010,04,25,17,55,9.60
2010,04,25,17,56,11.30
2010,04,25,17,57,14.50
2010,04,25,17,58,9.60
2010,04,25,17,59,4.80
2010,04,25,18,00,9.60
2010,04,25,18,01,8.10
2010,04,25,18,02,11.30
2010,04,25,18,03,14.50
2010,04,25,18,04,9.60
2010,04,25,18,05,11.30
2010,04,25,18,06,11.30
2010,04,25,18,07,16.10
2010,04,25,18,08,11.30
2010,04,25,18,09,14.50
2010,04,25,18,10,11.30
2010,04,25,18,11,14.50
2010,04,25,18,12,8.10
2010,04,25,18,13,11.30
2010,04,25,18,14,12.90
2010,04,25,18,15,8.10
2010,04,25,18,16,11.30
2010,04,25,18,17,8.10
2010,04,25,18,18,8.10
2010,04,25,18,19,4.80
2010,04,25,18,20,8.10
2010,04,25,18,21,12.90
2010,04,25,18,22,8.10
2010,04,25,18,23,6.40
2010,04,25,18,24,11.30
2010,04,25,18,25,11.30
2010,04,25,18,26,11.30
2010,04,25,18,27,8.10
2010,04,25,18,28,11.30
2010,04,25,18,29,8.10
2010,04,25,18,30,11.30